Find Starlink 33842

NORAD ID: 63782 Int'l Des: 2025-091 Owner: SPXS Country: US Constellation: starlink operational
LEOCIRCULAR

現在のビュー

3D地球を読み込み中...

About Starlink 33842

Starlink 33842 (NORAD 63782) is a starlink constellation satellite (v2 mini) launched May 2, 2025 by SPXS of US. It operates in LEO, CIRCULAR orbit with a mass of 575.00 kg.

次回通過

Passes for default location (London). Set your location on the main map for personalized predictions.

高度履歴

Loading altitude history...

軌道要素

1 63782U 25091H 26265.38289216 .00013822 00000-0 51054-3 0 9997
2 63782 43.0009 21.7229 0001632 189.3210 170.7611 15.27599666 79075
Epoch: Sep 22, 2026 • Age: 11 hours

現在のステータス

高度 494.4 km
遠地点 / 近地点 N/A
速度 7.62 km/s
衛星直下点 -37.78°S, 23.31°E
打ち上げ日 May 2, 2025
運用期間 1.3 years
タイプ internet

技術仕様

分類 Payload
質量 575.00 kg
乾燥質量 530.00 kg
長さ 0.30 m
スパン 29.00 m
形状 ? Box + pan
製造者 SPXS
バスタイプ Starlink V2MO
フェーズステータス In Orbit
所有者/国 SPXS/US

Most Searched